Location: Dillon
(41.1766°N, 107.0923°W)
Time: 12:22:34
(UTC+00:00)

RS-44 - Pass Details

Date: 26 June 2022
Orbit: 1175 x 1510 km, 82.5° (Epoch: 11 August)

Event Time Altitude Azimuth Distance (km) Brightness Sun altitude
Rises 06:21:20 0° 250° (WSW) 4,323 ? -24.4°
Reaches altitude 10° 06:25:59 10° 274° (W) 3,430 ? -24.6°
Maximum altitude 06:29:52 14° 303° (WNW) 3,195 ? -24.8°
Drops below altitude 10° 06:33:52 10° 332° (NNW) 3,552 ? -24.9°
Sets 06:38:55 0° 356° (N) 4,594 ? -25.0°
